This demonstration page uses our WeatherBlox Daily Observations layout. Learn more.

Left ArrowRight Arrow

Hourly Observations for August 8, 2022

Temp ( °F °C ) Dew Point ( °F °C ) Humidity (%) Winds ( mph kmh ) Pressure ( in mb ) Visibility ( mi km ) Precip ( " mm )
12:53 am 00:53 Clear 73 22.8 71 21.7 94 94 Calm 30.09 1019 10 16 0.00 0.00
1:53 am 01:53 Clear 73 22.8 71 21.7 94 94 Calm 30.09 1019 10 16 0.00 0.00
2:53 am 02:53 Clear 72 22.2 71 21.7 97 97 Calm 30.07 1018 9 14 0.00 0.00
3:53 am 03:53 Clear 72 22.2 70 21.1 94 94 Calm 30.06 1018 10 16 0.00 0.00
4:53 am 04:53 Clear 73 22.8 70 21.1 90 90 Calm 30.06 1018 10 16 0.00 0.00
5:53 am 05:53 Clear 73 22.8 70 21.1 90 90 Calm 30.06 1018 10 16 0.00 0.00
6:53 am 06:53 Mostly Cloudy 72 22.2 70 21.1 94 94 Calm 30.06 1018 10 16 0.00 0.00
7:53 am 07:53 Sunny 74 23.3 71 21.7 91 91 Calm 30.07 1018 10 16 0.00 0.00
8:53 am 08:53 Sunny 78 25.6 71 21.7 79 79 VRB 3 6 30.07 1018 10 16 0.00 0.00
9:53 am 09:53 Sunny 81 27.2 72 22.2 74 74 Calm 30.06 1018 10 16 0.00 0.00
10:53 am 10:53 Sunny 84 28.9 74 23.3 72 72 VRB 5 7 30.06 1018 10 16 0.00 0.00
11:53 am 11:53 Sunny 86 30 75 23.9 70 70 SW 8 13 30.06 1018 10 16 0.00 0.00
12:53 pm 12:53 Mostly Cloudy 88 31.1 75 23.9 66 66 VRB 6 9 30.04 1017 10 16 0.00 0.00
1:53 pm 13:53 Mostly Cloudy 85 29.4 74 23.3 70 70 VRB 7 11 30.03 1017 10 16 0.00 0.00
2:53 pm 14:53 Mostly Sunny 87 30.6 75 23.9 68 68 VRB 3 6 30.01 1016 10 16 0.01 0.13
3:53 pm 15:53 Sunny 90 32.2 75 23.9 62 62 VRB 6 9 29.99 1016 10 16 0.00 0.00
4:53 pm 16:53 Mostly Sunny 89 31.7 74 23.3 61 61 VRB 5 7 29.95 1014 10 16 0.00 0.00
5:53 pm 17:53 Sunny 88 31.1 73 22.8 61 61 undefined N/A 29.93 1014 10 16 0.00 0.00
6:53 pm 18:53 Sunny 87 30.6 74 23.3 65 65 undefined N/A 29.94 1014 10 16 0.00 0.00
7:53 pm 19:53 Sunny 84 28.9 73 22.8 70 70 Calm 29.94 1014 10 16 0.00 0.00
8:53 pm 20:53 Clear 80 26.7 73 22.8 79 79 Calm 29.94 1014 10 16 0.00 0.00
9:53 pm 21:53 Clear 78 25.6 74 23.3 87 87 Calm 29.97 1015 10 16 0.00 0.00
10:53 pm 22:53 Clear 77 25 74 23.3 90 90 Calm 29.98 1015 10 16 0.00 0.00
11:53 pm 23:53 Partly Cloudy 79 26.1 74 23.3 85 85 Calm 29.98 1015 10 16 0.00 0.00

Powered by AerisWeather